Regional Weather Roundup
Issued by NWS Grand Forks, ND

Home | Current Version | Previous Version | Text Only | Print | Product List | Glossary Off
Versions: 1 2 3 4 5 6 7 8 9 10 11 12 13 14 15 16 17 18 19 20 21 22 23 24 25 26 27 28 29 30 31 32 33 34 35 36 37 38 39 40 41 42 43 44 45 46 47 48 49 50

000
ASUS43 KFGF 241910
RWRFGF
PRAIRIE TO PINES  WEATHER ROUNDUP
NATIONAL WEATHER SERVICE EASTERN NORTH DAKOTA/GRAND FORKS ND
200 PM CDT TUE MAY 24 2016

 **SATELLITE DATA USED TO AUGMENT SKY COVER AT AUTOMATED STATIONS**
 *****  WEATHER ACROSS EASTERN NORTH DAKOTA  *****

CITY           SKY/WX    TMP DP  RH WIND       PRES   REMARKS
GRAND FORKS    MOSUNNY   76  51  41 SW8       29.86S
GRAND FRKS AFB SUNNY     73  53  48 N7        29.88R HAZE
GRAND FRKS NWS   N/A     77 N/A N/A W6          N/A
DEVILS LAKE    SUNNY     73  45  36 CALM      29.89S
FARGO          SUNNY     81  43  26 N3        29.84S
WAHPETON ARPT  PTCLDY    81  45  28 NE3       29.84F
$$

 ***** WEATHER ACROSS CENTRAL AND WESTERN NORTH DAKOTA  *****

CITY           SKY/WX    TMP DP  RH WIND       PRES   REMARKS
BISMARCK       SUNNY     74  41  30 VRB3      29.89S
MINOT          MOSUNNY   74  38  27 S8        29.88S
JAMESTOWN      SUNNY     75  49  39 S6        29.88S
MINOT AFB      NOT AVBL
GARRISON         N/A     70  42  36 SW9G17    29.90S
WILLISTON      PTSUNNY   68  39  34 SW15G23   29.89S
DICKINSON      PTSUNNY   66  36  32 NW6       29.89F
HETTINGER      SUNNY     71  40  32 S12       29.91F
$$

 *****  OTHER AIRPORT OBSERVATIONS IN OUR AREA  *****

CITY           SKY/WX    TMP DP  RH WIND       PRES   REMARKS
WALHALLA       FAIR      73  46  38 NW3       29.87S
GRAFTON AIRPOR FAIR      73  54  49 N7        29.89R
VALLEY CITY AR FAIR      73  50  43 NW6       29.90F
CANDO          NOT AVBL
CAVALIER APRT  FAIR      73  48  40 E6        29.88R
GWINNER        FAIR      81  48  32 NW5       29.86S
SHEYENNE NWR     N/A     83  46  26 SW7       29.95S
ROLLA            N/A     72  37  28 S13G23    29.89S
 ***** THE ABOVE OBSERVATIONS ARE NON NWS ARE NOT QUALITY
       CONTROLLED AND MAY MIS-REPORT RAIN FOR SNOW...
$$

  *****  WEATHER ACROSS NORTHERN MINNESOTA  *****

CITY           SKY/WX    TMP DP  RH WIND       PRES   REMARKS
FLAG ISLAND    MOSUNNY   66  52  59 NW9       29.86R
WARROAD        SUNNY     70  55  60 E8        29.88R
ROSEAU         SUNNY     73  52  46 SW7       29.87S
HALLOCK        MOSUNNY   73  54  49 NE7       29.87S
THF RVR FALLS  SUNNY     72  54  53 SW10      29.89S
BAUDETTE       SUNNY     75  47  36 N8        29.86R
WASKISH        SUNNY     73  50  43 W7        29.87S
CROOKSTON      SUNNY     73  54  49 NW6       29.88S
STEPHEN NDAWN    N/A     73  52  46 W3          N/A
GREENBUSH NDAW   N/A     72  55  56 W3          N/A
$$
  *****  WEATHER ACROSS CENTRAL AND WEST MINNESOTA  *****

CITY           SKY/WX    TMP DP  RH WIND       PRES   REMARKS
FOSSTON          N/A     73  55  53 SW10      29.89S
BEMIDJI        SUNNY     77  45  32 W5        29.88S
PARK RAPIDS    SUNNY     78  52  40 S6        29.88S
ELBOW LAKE     FAIR      81  54  39 SW8       29.86S
WADENA         SUNNY     77  52  41 S3        29.88S
DETROIT LAKES  SUNNY     75  50  41 SW7       29.90S
MOORHEAD       SUNNY     82  45  26 SE6       29.85F
FERGUS FALLS   SUNNY     79  54  41 SE5       29.82F
MORRIS MN      SUNNY     84  55  37 S12       29.84F
STAPLES        MOSUNNY   79  46  31 S5        29.88S
$$
  *****  WEATHER ELSEWHERE ACROSS MINNESOTA  *****

CITY           SKY/WX    TMP DP  RH WIND       PRES   REMARKS
DULUTH         MOSUNNY   73  55  53 NE7       29.89F
INTRNTL FALLS  SUNNY     77  48  35 VRB6      29.86S
ELY            SUNNY     73  52  46 S5        29.89S
CLOQUET        MOSUNNY   73  54  49 SW6       29.89F
WHEATON        SUNNY     86  52  30 SW9       29.85S
BRAINERD       SUNNY     75  53  46 CALM      29.89F
HIBBING        MOSUNNY   75  48  38 W5        29.88S
ALEXANDRIA     SUNNY     80  53  39 VRB3      29.89S
SAINT CLOUD    MOSUNNY   78  57  48 CALM      29.88S
MINNEAPOLIS    MOSUNNY   82  55  39 VRB6      29.89S
$$

  *****  WEATHER ACROSS SOUTH DAKOTA  *****

CITY           SKY/WX    TMP DP  RH WIND       PRES   REMARKS
SIOUX FALLS    MOSUNNY   81  53  37 VRB3      29.87S
BROOKINGS      SUNNY     79  57  46 VRB3      29.88S
WATERTOWN      SUNNY     77  60  55 SW8       29.88R
HURON          SUNNY     80  54  40 CALM      29.85S
SISSETON         N/A     81  53  37 VRB3      29.83F
ABERDEEN       SUNNY     80  50  34 E8        29.85S
MITCHELL       SUNNY     83  49  30 W8        29.86S
PIERRE         SUNNY     76  49  38 CALM      29.86S
MOBRIDGE       SUNNY     75  47  36 NW8       29.87S
RAPID CITY     MOSUNNY   70  43  37 SE10      29.90F
$$

  *****  SOME WEATHER IN NEARBY STATES *****

CITY           SKY/WX    TMP DP  RH WIND       PRES   REMARKS
GLASGOW MT     CLOUDY    58  41  53 W12       29.88R
GREAT FALLS MT CLOUDY    53  36  52 VRB3      29.90F
CHEYENNE WY    MOSUNNY   64  45  49 S25G35    29.95F
SCOTTSBLUFF NE SUNNY     74  49  41 SE15      29.89F
OMAHA NE       CLOUDY    78  60  53 CALM      29.87S
DES MOINES IA  PTSUNNY   77  63  61 CALM      29.91S
DAVENPORT IA   SUNNY     86  58  38 S13G23    29.92F
CHICAGO IL     PTSUNNY   84  53  34 SW18      29.95F
EAU CLAIRE WI  PTSUNNY   78  59  51 SW9       29.90S
LA CROSSE WI   CLOUDY    79  60  52 SE7       29.91F
$$

  *****  SOME NATIONAL WEATHER *****

CITY           SKY/WX    TMP DP  RH WIND       PRES   REMARKS
LA GUARDIA NY  CLOUDY    72  59  63 N8        29.90S
RALEIGH NC     MOSUNNY   81  50  33 W9G17     30.10S
ATLANTA GA     PTSUNNY   84  52  33 NW8       30.15F
NEW ORLEANS LA PTSUNNY   88  72  58 S10       30.08F HX  94
OKLAHOMA CITY  PTSUNNY   86  73  65 S14G25    29.89S HX  93
ALBUQUERQUE NM MOSUNNY   75  22  13 SW6G20    30.00F
SALT LAKE CITY PTSUNNY   67  38  34 W26       29.77F THUNDER
LOS ANGELES CA PTSUNNY   66  50  56 SW12      30.02R
BOISE ID       MOSUNNY   67  40  37 NW13G20   29.84F
SEATTLE WA     CLOUDY    59  51  75 VRB3      30.00S
$$

*** WEATHER ACROSS MANITOBA...SASKATCHEWAN AND ONTARIO ***
                ***ONTARIO***

CITY           SKY/WX    TMP DP  RH WIND       PRES   REMARKS
GERALDTON      CLOUDY    55  39  54 NE10G18   30.01R
THUNDER BAY    CLOUDY    59  57  94 E7        29.94R FOG
SIOUX LOOKOUT  CLOUDY    64  54  68 E8        29.89F
TORONTO        MOSUNNY   84  41  21 NW15      29.95S
BIG TROUT LK   CLOUDY    45  36  70 E5        30.11F
PICKLE LAKE    PTSUNNY   52  39  62 E12G18    30.01S
DRYDEN         CLOUDY    64  57  77 N8        29.87S
KENORA         NOT AVBL
$$
                *** MANITOBA***

CITY           SKY/WX    TMP DP  RH WIND       PRES   REMARKS
BRANDON        PTSUNNY   72  41  33 SW14G22   29.86S
DAUPHIN        SUNNY     64  52  63 E15G23    29.88R
ISLAND LAKE    PTSUNNY   50  41  71 SE12      30.04S
PILOT MOUND      N/A     73  41  31 S10G17      N/A
THE PAS        CLOUDY    52  41  66 SE9       29.98S
THOMPSON       PTSUNNY   45  34  65 E8        30.07F
WINNIPEG       PTSUNNY   72  43  35 SE7       29.89R
LYNN LAKE      MOSUNNY   50  39  66 SE7       30.01F
CHURCHILL      PTSUNNY   34  21  60 N8        30.18S
GILLAM         MOSUNNY   41  25  52 NE10      30.13S
$$
                ***SASKATCHEWAN***

CITY           SKY/WX    TMP DP  RH WIND       PRES   REMARKS
ESTEVAN        NOT AVBL
KINDERSLEY     CLOUDY    50  46  87 NE13      29.85S
LLOYDMINSTER   CLOUDY    55  46  71 E5        29.89R
PRINCE ALBERT  DRIZZLE   50  46  87 E14       29.92R
REGINA         PTSUNNY   61  43  51 SW10      29.81S
YORKTON        PTSUNNY   66  45  45 S7        29.84S
N. BATTLEFORD  CLOUDY    52  45  76 NE12      29.91R
LA RONGE       MOSUNNY   57  43  58 NE6       29.95S
SASKATOON      CLOUDY    55  52  88 NE18      29.87R
SWIFT CURRENT  CLOUDY    54  45  71 NW12      29.80R
$$
NOTE: THESE ARE AUTOMATED STATIONS WITH LIMITED QUALITY CONTROL
      "FAIR" INDICATES FEW OR NO CLOUDS BELOW 12,000 FEET WITH NO
      SIGNIFICANT WEATHER AND/OR OBSTRUCTIONS TO VISIBILITY.
      SKY/WX - SKY CONDITION AND SIGNIFICANT WEATHER.
      TMP - AIR TEMPERATURE.    DP   - DEWPOINT TEMPERATURE.
      RH  - RELATIVE HUMIDITY.  PRES - PRESSURE.
      HX  - HEAT INDEX.         WCI  - WIND CHILL INDEX.
$




USA.gov is the U.S. government's official web portal to all federal, state and local government web resources and services.